Powrót do katalogu

NOAA 16 DEB

AktywnyPO
NORAD 41057·DEBRIS·🇺🇸 United States

Wystrzelony Sep 21, 2000 z Vandenberg Space Force Base

Loading…

Następne Przeloty (najbliższe 24 godziny)

TLE

ŚwieżeSource: Space-Track

Epoka: Sep 14, 2026, 01:07 UTC

1 41057U 00055Q   26257.04674775  .00003697  00000-0  10799-2 0  9992
2 41057  98.9583  66.3512 0017573 272.4838  87.4339 14.44597200561395

Śledź NOAA 16 DEB w czasie rzeczywistym z AllMySat

Download on the App Store